Time,TemperatureF,DewpointF,PressureIn,WindDirection,WindDirectionDegrees,WindSpeedMPH,WindSpeedGustMPH,Humidity,HourlyPrecipIn,Conditions,Clouds,dailyrainin,SoftwareType,DateUTC
2013-09-16 00:13:00,31.0,31.0,30.29,SSE,155,0.0,0.0,98,0.00,,,0.20,,2013-09-16 05:13:00,
2013-09-16 00:22:00,32.0,32.0,30.29,SSE,155,0.0,0.0,98,0.00,,,0.20,,2013-09-16 05:22:00,
2013-09-16 00:44:00,32.0,32.0,30.29,SSE,155,0.0,0.0,98,0.00,,,0.20,,2013-09-16 05:44:00,
2013-09-16 00:52:00,32.0,32.0,30.30,SSE,155,0.0,0.0,98,0.00,,,0.20,,2013-09-16 05:52:00,
2013-09-16 01:12:00,32.0,32.0,30.30,SSE,155,0.0,0.0,99,0.00,,,0.20,,2013-09-16 06:12:00,
2013-09-16 01:22:00,32.0,32.0,30.30,SSE,155,0.0,0.0,99,0.00,,,0.20,,2013-09-16 06:22:00,
2013-09-16 01:52:00,32.0,32.0,30.31,SSE,155,0.0,0.0,99,0.00,,,0.17,,2013-09-16 06:52:00,
2013-09-16 02:11:00,32.0,32.0,30.31,SSE,155,0.0,0.0,99,0.00,,,0.17,,2013-09-16 07:11:00,
2013-09-16 02:22:00,32.0,32.0,30.32,SSE,155,0.0,0.0,99,0.00,,,0.17,,2013-09-16 07:22:00,
2013-09-16 02:43:00,32.0,32.0,30.32,SSE,155,0.0,0.0,99,0.00,,,0.17,,2013-09-16 07:43:00,
2013-09-16 02:52:00,32.0,32.0,30.32,SSE,155,0.0,0.0,99,0.00,,,0.16,,2013-09-16 07:52:00,
2013-09-16 03:11:00,32.0,32.0,30.32,SSE,155,0.0,0.0,99,0.00,,,0.16,,2013-09-16 08:11:00,
2013-09-16 03:22:00,31.0,31.0,30.32,SSE,155,0.0,0.0,99,0.00,,,0.16,,2013-09-16 08:22:00,
2013-09-16 03:42:00,31.0,31.0,30.33,SSE,155,0.0,0.0,99,0.00,,,0.16,,2013-09-16 08:42:00,
2013-09-16 03:52:00,30.0,30.0,30.33,SSE,155,0.0,0.0,99,0.00,,,0.13,,2013-09-16 08:52:00,
2013-09-16 04:12:00,30.0,30.0,30.33,SSE,155,0.0,0.0,99,0.00,,,0.13,,2013-09-16 09:12:00,
2013-09-16 04:22:00,30.0,30.0,30.34,SSE,155,0.0,0.0,99,0.00,,,0.13,,2013-09-16 09:22:00,
2013-09-16 04:43:00,30.0,30.0,30.35,SSE,155,0.0,0.0,99,0.00,,,0.13,,2013-09-16 09:43:00,
2013-09-16 04:53:00,30.0,30.0,30.35,SSE,155,0.0,0.0,99,0.00,,,0.13,,2013-09-16 09:53:00,
2013-09-16 05:12:00,30.0,30.0,30.36,SSE,155,0.0,0.0,99,0.00,,,0.13,,2013-09-16 10:12:00,
2013-09-16 05:23:00,31.0,31.0,30.36,SSE,155,0.0,0.0,99,0.00,,,0.13,,2013-09-16 10:23:00,
2013-09-16 05:42:00,31.0,31.0,30.37,SSE,155,0.0,0.0,99,0.00,,,0.13,,2013-09-16 10:42:00,
2013-09-16 05:53:00,32.0,32.0,30.37,SSE,155,0.0,0.0,99,0.00,,,0.11,,2013-09-16 10:53:00,
2013-09-16 06:12:00,31.0,31.0,30.37,SSE,155,0.0,0.0,99,0.00,,,0.11,,2013-09-16 11:12:00,
2013-09-16 06:22:00,31.0,31.0,30.38,SSE,155,0.0,0.0,99,0.00,,,0.11,,2013-09-16 11:22:00,
2013-09-16 06:42:00,30.0,30.0,30.39,SSE,155,0.0,0.0,99,0.00,,,0.11,,2013-09-16 11:42:00,
2013-09-16 06:52:00,30.0,30.0,30.40,SSE,155,0.0,0.0,99,0.00,,,0.10,,2013-09-16 11:52:00,
2013-09-16 07:12:00,30.0,30.0,30.40,SSE,155,0.0,0.0,99,0.00,,,0.10,,2013-09-16 12:12:00,
2013-09-16 07:22:00,31.0,31.0,30.41,SSE,155,0.0,0.0,99,0.00,,,0.10,,2013-09-16 12:22:00,
2013-09-16 07:52:00,32.0,32.0,30.42,SSE,155,0.0,0.0,99,0.00,,,0.06,,2013-09-16 12:52:00,
2013-09-16 08:11:00,33.0,33.0,30.42,SSE,155,0.0,0.0,99,0.00,,,0.06,,2013-09-16 13:11:00,
2013-09-16 08:22:00,34.0,34.0,30.42,SSE,155,0.0,0.0,99,0.00,,,0.06,,2013-09-16 13:22:00,
2013-09-16 08:52:00,40.0,40.0,30.42,SSE,155,0.0,0.0,100,0.00,,,0.03,,2013-09-16 13:52:00,
2013-09-16 09:11:00,44.0,44.0,30.42,SSE,155,0.0,0.0,100,0.00,,,0.03,,2013-09-16 14:11:00,
2013-09-16 09:22:00,47.0,47.0,30.42,SSE,155,0.0,0.0,100,0.00,,,0.03,,2013-09-16 14:22:00,
2013-09-16 09:52:00,53.0,47.0,30.43,SSE,151,0.0,0.0,80,0.01,,,0.03,,2013-09-16 14:52:00,
2013-09-16 10:12:00,53.0,47.0,30.43,SE,134,0.0,2.0,80,0.01,,,0.03,,2013-09-16 15:12:00,
2013-09-16 10:22:00,53.0,45.0,30.44,West,264,0.0,2.0,73,0.01,,,0.03,,2013-09-16 15:22:00,
2013-09-16 10:43:00,52.0,46.0,30.43,SW,235,0.0,2.0,79,0.00,,,0.03,,2013-09-16 15:43:00,
2013-09-16 10:53:00,53.0,44.0,30.43,SE,128,0.0,3.0,72,0.00,,,0.01,,2013-09-16 15:53:00,
2013-09-16 11:12:00,53.0,45.0,30.43,South,188,0.0,2.0,74,0.00,,,0.01,,2013-09-16 16:12:00,
2013-09-16 11:23:00,55.0,44.0,30.43,SSE,148,1.0,3.0,66,0.00,,,0.01,,2013-09-16 16:23:00,
2013-09-16 11:43:00,56.0,45.0,30.43,ESE,122,0.0,2.0,67,0.00,,,0.01,,2013-09-16 16:43:00,
2013-09-16 11:52:00,58.0,46.0,30.43,ESE,120,0.0,1.0,65,0.00,,,0.01,,2013-09-16 16:52:00,
2013-09-16 12:12:00,58.0,44.0,30.42,West,263,0.0,3.0,59,0.00,,,0.01,,2013-09-16 17:12:00,
2013-09-16 12:23:00,57.0,43.0,30.42,SSE,160,0.0,3.0,60,0.00,,,0.01,,2013-09-16 17:23:00,
2013-09-16 12:42:00,57.0,45.0,30.42,SSE,157,0.0,3.0,63,0.00,,,0.01,,2013-09-16 17:42:00,
2013-09-16 12:53:00,59.0,44.0,30.42,East,88,0.0,3.0,58,0.00,,,0.01,,2013-09-16 17:53:00,
2013-09-16 13:12:00,60.0,46.0,30.42,WSW,238,0.0,2.0,60,0.00,,,0.01,,2013-09-16 18:12:00,
2013-09-16 13:22:00,59.0,44.0,30.42,SE,139,0.0,3.0,57,0.00,,,0.01,,2013-09-16 18:22:00,
2013-09-16 13:42:00,58.0,44.0,30.41,WSW,248,0.0,2.0,60,0.00,,,0.01,,2013-09-16 18:42:00,
2013-09-16 13:52:00,59.0,43.0,30.41,SW,236,0.0,1.0,56,0.00,,,0.01,,2013-09-16 18:52:00,
2013-09-16 14:11:00,61.0,44.0,30.40,East,79,0.0,2.0,53,0.00,,,0.01,,2013-09-16 19:11:00,
2013-09-16 14:22:00,61.0,43.0,30.40,WNW,302,1.0,3.0,51,0.00,,,0.01,,2013-09-16 19:22:00,
2013-09-16 14:42:00,61.0,47.0,30.39,SW,226,0.0,2.0,59,0.00,,,0.01,,2013-09-16 19:42:00,
2013-09-16 14:53:00,62.0,45.0,30.39,SW,221,0.0,3.0,54,0.00,,,0.01,,2013-09-16 19:53:00,
2013-09-16 15:11:00,61.0,42.0,30.39,SSE,153,2.0,4.0,50,0.00,,,0.01,,2013-09-16 20:11:00,
2013-09-16 15:22:00,60.0,44.0,30.38,SSE,148,0.0,4.0,56,0.00,,,0.01,,2013-09-16 20:22:00,
2013-09-16 15:43:00,62.0,43.0,30.37,West,275,0.0,2.0,50,0.00,,,0.01,,2013-09-16 20:43:00,
2013-09-16 15:52:00,61.0,42.0,30.37,SSE,158,0.0,4.0,50,0.00,,,0.01,,2013-09-16 20:52:00,
2013-09-16 16:11:00,60.0,43.0,30.37,WSW,240,0.0,1.0,54,0.00,,,0.01,,2013-09-16 21:11:00,
2013-09-16 16:22:00,60.0,45.0,30.37,NE,50,0.0,1.0,58,0.00,,,0.01,,2013-09-16 21:22:00,
2013-09-16 16:55:00,59.0,42.0,30.36,SSE,163,0.0,2.0,54,0.00,,,0.01,,2013-09-16 21:55:00,
2013-09-16 17:13:00,59.0,43.0,30.36,WNW,302,0.0,1.0,55,0.00,,,0.01,,2013-09-16 22:13:00,
2013-09-16 17:24:00,59.0,42.0,30.35,WNW,300,0.0,0.0,54,0.00,,,0.01,,2013-09-16 22:24:00,
2013-09-16 17:43:00,58.0,48.0,30.35,North,9,0.0,0.0,69,0.00,,,0.01,,2013-09-16 22:43:00,
2013-09-16 17:53:00,56.0,47.0,30.35,NNE,17,0.0,0.0,72,0.00,,,0.01,,2013-09-16 22:53:00,
2013-09-16 19:42:00,46.0,44.0,30.34,NNE,18,0.0,0.0,94,0.00,,,0.01,,2013-09-17 00:42:00,
2013-09-16 20:42:00,42.0,41.0,30.34,NNE,18,0.0,0.0,96,0.00,,,0.01,,2013-09-17 01:42:00,
2013-09-16 20:52:00,41.0,40.0,30.35,NNE,18,0.0,0.0,96,0.00,,,0.01,,2013-09-17 01:52:00,
2013-09-16 21:11:00,40.0,39.0,30.35,NNE,18,0.0,0.0,96,0.00,,,0.01,,2013-09-17 02:11:00,
2013-09-16 21:22:00,40.0,39.0,30.35,NNE,18,0.0,0.0,97,0.00,,,0.01,,2013-09-17 02:22:00,
2013-09-16 21:42:00,40.0,39.0,30.35,NNE,18,0.0,0.0,98,0.00,,,0.01,,2013-09-17 02:42:00,
2013-09-16 21:52:00,41.0,40.0,30.35,NNE,22,0.0,0.0,98,0.00,,,0.01,,2013-09-17 02:52:00,
2013-09-16 22:11:00,41.0,40.0,30.35,NNE,20,0.0,0.0,98,0.00,,,0.01,,2013-09-17 03:11:00,
2013-09-16 22:23:00,40.0,39.0,30.35,NNE,20,0.0,0.0,98,0.00,,,0.01,,2013-09-17 03:23:00,
2013-09-16 22:45:00,40.0,39.0,30.35,NNE,20,0.0,0.0,98,0.00,,,0.01,,2013-09-17 03:45:00,
2013-09-16 22:54:00,40.0,39.0,30.35,NNE,20,0.0,0.0,98,0.00,,,0.01,,2013-09-17 03:54:00,
2013-09-16 23:14:00,39.0,38.0,30.35,NNE,22,0.0,0.0,98,0.00,,,0.01,,2013-09-17 04:14:00,
2013-09-16 23:24:00,39.0,38.0,30.35,NNE,22,0.0,0.0,98,0.00,,,0.01,,2013-09-17 04:24:00,
2013-09-16 23:44:00,38.0,37.0,30.35,NNE,23,0.0,0.0,97,0.00,,,0.01,,2013-09-17 04:44:00,
2013-09-16 23:54:00,37.0,36.0,30.35,NNE,23,0.0,0.0,97,0.00,,,0.01,,2013-09-17 04:54:00,